Flag for Germany Weather past 2 weeks in Ahrensburg, Schleswig-Holstein, Germany

Now
55 °F

Clear.


Feels Like: 53 °F
Forecast: 50 / 63 °F
Wind: 10 mph from Southwest

Location: Hamburg-Fuhlsbuettel

Current Time: Sep 2, 2015 at 2:27:27 AM

Latest Report: Sep 2, 2015 at 1:50 AM


Visibility: 10 mi

Pressure: 29.89 "Hg

Humidity: 88%

Dew point: 52 °F

Location of AhrensburgLocation

Historic Weather in Ahrensburg — Graph

°F

Ahrensburg temperature yesterday

Maximum temperature yesterday: 68 °F (at 12:20 AM)
Minimum temperature yesterday: 57 °F (at 10:20 PM)
Average temperature yesterday: 64 °F

Past Weeks' High & Low Weather Summary

 TemperatureHumidityPressure
High82 °F (Aug 31, 4:50 PM)100% (Aug 18, 11:20 AM)30.30 "Hg (Aug 18, 11:20 AM)
Low50 °F (Aug 29, 3:50 AM)30% (Aug 22, 12:50 PM)29.59 "Hg (Aug 24, 7:20 PM)
Average64 °F78%29.98 "Hg
* Reported Aug 18 1:20 AM — Sep 2 1:20 AM, Ahrensburg, Weather by CustomWeather, © 2015

Note: Actual official high and low records may vary slightly from our data, if they occured in-between our weather recording intervals... More about our weather records

Advertising

Ahrensburg weather history for previous 24 hours

 ConditionsComfort  
Time TempWeatherWind HumidityBarometerVisibility
1:20 AM
Wed, Sep 2
55 °FPassing clouds.10 mph88%29.89 "HgN/A
12:50 AM57 °FPassing clouds.10 mph82%29.89 "HgN/A
11:20 PM
Tue, Sep 1
57 °FPassing clouds.9 mph82%29.89 "HgN/A
10:50 PM57 °FPassing clouds.8 mph88%29.89 "HgN/A
10:20 PM57 °FClear.7 mph88%29.89 "Hg10 mi
9:50 PM59 °FPassing clouds.9 mph82%29.86 "HgN/A
9:20 PM59 °FPassing clouds.7 mph82%29.86 "HgN/A
8:50 PM59 °FScattered clouds.9 mph82%29.86 "HgN/A
8:20 PM61 °FPartly sunny.13 mph77%29.86 "HgN/A
7:50 PM63 °FBroken clouds.14 mph77%29.83 "HgN/A
7:20 PM63 °FBroken clouds.12 mph77%29.83 "HgN/A
6:50 PM63 °FBroken clouds.10 mph83%29.83 "HgN/A
6:20 PM61 °FLight rain. Broken clouds.12 mph88%29.83 "HgN/A
5:20 PM63 °FLight rain. Broken clouds.9 mph83%29.80 "HgN/A
4:50 PM61 °FLight rain. Broken clouds.9 mph88%29.80 "HgN/A
4:20 PM63 °FLight rain. Broken clouds.8 mph88%29.80 "HgN/A
3:50 PM63 °FLight rain. Broken clouds.12 mph83%29.80 "HgN/A
3:20 PM63 °FLight rain. Broken clouds.13 mph83%29.80 "HgN/A
2:50 PM64 °FLight rain. Broken clouds.14 mph78%29.80 "HgN/A
2:20 PM63 °FBroken clouds.15 mph83%29.77 "HgN/A
1:50 PM63 °FLight rain. Partly sunny.13 mph83%29.77 "HgN/A
1:20 PM64 °FBroken clouds.17 mph78%29.77 "HgN/A
12:50 PM64 °FPartly sunny.15 mph78%29.77 "HgN/A
12:20 PM64 °FPartly sunny.13 mph78%29.74 "HgN/A
11:50 AM64 °FBroken clouds.14 mph78%29.74 "HgN/A
11:20 AM64 °FBroken clouds.15 mph78%29.74 "HgN/A
10:50 AM66 °FBroken clouds.14 mph78%29.74 "HgN/A
10:20 AM66 °FBroken clouds.10 mph83%29.74 "HgN/A
9:50 AM66 °FLight rain. Broken clouds.16 mph83%29.71 "HgN/A
9:20 AM68 °FPartly sunny.14 mph83%29.71 "HgN/A
8:50 AM68 °FBroken clouds.13 mph83%29.71 "HgN/A
8:20 AM68 °FBroken clouds.10 mph83%29.71 "HgN/A
7:50 AM68 °FBroken clouds.12 mph83%29.71 "HgN/A
7:20 AM68 °FPassing clouds.8 mph88%29.68 "Hg4 mi
6:50 AM68 °FPassing clouds.7 mph88%29.68 "Hg4 mi
5:50 AM68 °FPassing clouds.6 mph83%29.71 "HgN/A
5:20 AM68 °FClear.10 mph88%29.71 "Hg10 mi
4:50 AM68 °FClear.8 mph83%29.71 "Hg10 mi
4:20 AM68 °FClear.8 mph88%29.68 "Hg10 mi
3:50 AM68 °FPassing clouds.10 mph88%29.71 "HgN/A
3:20 AM66 °FClear.7 mph94%29.68 "Hg10 mi
2:50 AM66 °FClear.5 mph94%29.68 "Hg10 mi
2:20 AM66 °FClear.3 mph94%29.68 "Hg10 mi
Weather by CustomWeather, © 2015

See weather overviewHow to use our weather pages